Change the Weather History Date:

Monday, April 14, 2014

  Actual Average Record
Temperature  
Mean Temperature 38 °F -  
Max Temperature 46 °F 65 °F 90 °F (1976)
Min Temperature 30 °F 41 °F 21 °F (1950)
Degree Days  
Heating Degree Days 27    
Moisture  
Dew Point 25 °F    
Average Humidity 70    
Maximum Humidity 89    
Minimum Humidity 37    
Precipitation  
Precipitation 0.00 in - - ()
Sea Level Pressure  
Sea Level Pressure 30.05 in    
Wind  
Wind Speed 19 mph (NNW)    
Max Wind Speed 25 mph    
Max Gust Speed 36 mph    
Visibility 8 miles    
Events Snow    
Averages and records for this station are not official NWS values.
T = Trace of Precipitation, MM = Missing Value Source: NWS Daily Summary

Daily Weather History Graph

Daily Weather History Graph

Search for Another Location

Airport or City:

Trip Planner

Search our weather history database for the weather conditions in past years. The results will help you decide how hot, cold, wet, or windy it might be!

Date:

Astronomy

Apr. 14, 2014 Rise Set
Actual Time 6:47 AM CDT 7:58 PM CDT
Civil Twilight 6:20 AM CDT 8:26 PM CDT
Nautical Twilight 5:47 AM CDT 8:59 PM CDT
Astronomical Twilight 5:12 AM CDT 9:33 PM CDT
Moon 7:38 PM CDT (4/14) 6:19 AM CDT (4/14)
Length of Visible Light 14h 06m
Length of Day
13h 11m
Full, 100% of the Moon is Illuminated
Apr 14
Full
Apr 15
Full
Apr 22
Last Quarter
Apr 29
New
May 6
First Quarter

Hourly Weather History & Observations

Time (CDT) Temp. Windchill Dew Point Humidity Pressure Visibility Wind Dir Wind Speed Gust Speed Precip Events Conditions
12:21 AM 36.0 °F 24.4 °F 30.9 °F 82% 29.86 in 10.0 mi NNW 23.0 mph 31.1 mph N/A   Overcast
12:53 AM 36.0 °F 24.2 °F 30.0 °F 79% 29.88 in 10.0 mi North 24.2 mph 29.9 mph N/A   Overcast
1:20 AM 34.0 °F 24.2 °F 30.9 °F 89% 29.89 in 3.0 mi NNW 15.0 mph 25.3 mph 0.00 in Snow Light Snow
1:25 AM 34.0 °F 23.0 °F 30.9 °F 89% 29.88 in 2.0 mi NNW 18.4 mph 24.2 mph 0.00 in Snow Light Snow
1:33 AM 34.0 °F 23.0 °F 30.9 °F 89% 29.87 in 2.5 mi North 18.4 mph 26.5 mph 0.00 in Snow Light Snow
1:43 AM 34.0 °F 23.0 °F 30.9 °F 89% 29.86 in 3.0 mi North 18.4 mph - 0.00 in Snow Light Snow
1:53 AM 34.0 °F 22.1 °F 30.9 °F 89% 29.88 in 4.0 mi NNW 21.9 mph 32.2 mph 0.00 in Snow Light Snow
2:53 AM 34.0 °F 24.2 °F 30.0 °F 85% 29.89 in 10.0 mi North 15.0 mph 27.6 mph 0.00 in   Overcast
3:46 AM 34.0 °F 23.0 °F 28.0 °F 79% 29.89 in 10.0 mi North 18.4 mph 29.9 mph N/A   Overcast
4:53 AM 34.0 °F 22.7 °F 27.0 °F 75% 29.99 in 10.0 mi NNW 19.6 mph 27.6 mph N/A   Overcast
5:33 AM 32.0 °F 19.8 °F 28.0 °F 85% 29.98 in 2.0 mi NNW 20.7 mph 28.8 mph 0.00 in Snow Light Snow
5:40 AM 32.0 °F 20.1 °F 28.0 °F 85% 29.99 in 3.0 mi NNW 19.6 mph 26.5 mph 0.00 in Snow Light Snow
5:47 AM 32.0 °F 18.9 °F 28.4 °F 87% 29.99 in 4.0 mi NNW 24.2 mph 29.9 mph 0.00 in Snow Light Snow
5:53 AM 32.0 °F 19.5 °F 27.0 °F 82% 30.02 in 5.0 mi NNW 21.9 mph 32.2 mph 0.00 in Snow Light Snow
6:08 AM 32.0 °F 20.1 °F 27.0 °F 82% 30.01 in 4.0 mi NNW 19.6 mph 28.8 mph 0.00 in Snow Light Snow
6:17 AM 32.0 °F 18.9 °F 27.0 °F 82% 30.01 in 2.5 mi NNW 24.2 mph 31.1 mph 0.00 in Snow Light Snow
6:26 AM 32.0 °F 19.8 °F 27.0 °F 82% 30.01 in 3.0 mi NNW 20.7 mph 27.6 mph 0.00 in Snow Light Snow
6:49 AM 30.2 °F 16.8 °F 26.6 °F 86% 30.03 in 6.0 mi NNW 23.0 mph 33.4 mph 0.00 in Snow Light Snow
6:53 AM 30.9 °F 18.1 °F 26.1 °F 82% 30.05 in 7.0 mi North 21.9 mph 33.4 mph 0.00 in   Overcast
7:11 AM 30.9 °F 20.2 °F 26.1 °F 82% 30.05 in 10.0 mi NNW 15.0 mph 31.1 mph N/A   Overcast
7:26 AM 30.9 °F 18.4 °F 25.0 °F 79% 30.05 in 10.0 mi NNW 20.7 mph - N/A   Overcast
7:53 AM 32.0 °F 18.6 °F 23.0 °F 69% 30.08 in 10.0 mi North 25.3 mph 33.4 mph N/A   Overcast
8:53 AM 32.0 °F 18.9 °F 21.0 °F 64% 30.12 in 10.0 mi North 24.2 mph 31.1 mph N/A   Overcast
9:53 AM 33.1 °F 21.2 °F 21.0 °F 61% 30.14 in 10.0 mi North 20.7 mph 33.4 mph N/A   Overcast
10:53 AM 34.0 °F 22.7 °F 21.0 °F 59% 30.17 in 10.0 mi NNW 19.6 mph 27.6 mph N/A   Overcast
11:53 AM 34.0 °F 22.7 °F 19.0 °F 54% 30.19 in 10.0 mi North 19.6 mph 29.9 mph N/A   Overcast
1:53 PM 41.0 °F 31.4 °F 23.0 °F 49% 30.19 in 10.0 mi NW 21.9 mph 28.8 mph N/A   Scattered Clouds
2:53 PM 43.0 °F 34.2 °F 19.0 °F 38% 30.17 in 10.0 mi North 20.7 mph 35.7 mph N/A   Clear
3:53 PM 45.0 °F 36.6 °F 19.9 °F 37% 30.17 in 10.0 mi North 21.9 mph 29.9 mph N/A   Clear
4:53 PM 46.0 °F 39.3 °F 21.0 °F 37% 30.17 in 10.0 mi NNE 16.1 mph 21.9 mph N/A   Partly Cloudy
5:53 PM 44.1 °F 36.5 °F 19.0 °F 37% 30.17 in 10.0 mi North 17.3 mph - N/A   Clear
6:53 PM 44.1 °F 37.7 °F 21.0 °F 40% 30.17 in 10.0 mi NNW 12.7 mph - N/A   Partly Cloudy
7:53 PM 41.0 °F 36.4 °F 21.0 °F 45% 30.16 in 10.0 mi North 6.9 mph - N/A   Clear
8:53 PM 39.0 °F 35.7 °F 21.0 °F 49% 30.17 in 10.0 mi North 4.6 mph - N/A   Clear
9:53 PM 36.0 °F - 26.1 °F 67% 30.19 in 10.0 mi Calm Calm - N/A   Overcast
10:53 PM 39.9 °F 36.7 °F 23.0 °F 51% 30.19 in 10.0 mi ENE 4.6 mph - N/A   Overcast
11:53 PM 37.0 °F - 26.1 °F 65% 30.20 in 10.0 mi Calm Calm - N/A   Overcast